Flag for Venezuela Weather past 2 weeks in San Cristóbal, Venezuela

Now
73 °F

Overcast.


Feels Like: 68 °F
Forecast: 67 / 90 °F
Wind: N/A

Location: San Antonio Del Tachira Airport


UV Index: 3 (Moderate)

Visibility: 5 mi


Pressure: 29.89 "Hg

Humidity: 100%

Dew point: 73 °F

Location of San CristóbalLocation

Historic Weather in San Cristóbal

°F

San Cristóbal temperature yesterday

Maximum temperature yesterday: 93 °F (at 2:30 PM)
Minimum temperature yesterday: 75 °F (at 6:30 AM)
Average temperature yesterday: 84 °F

Past Weeks' High & Low Weather Summary

 TemperatureHumidityPressure
High95 °F (Apr 8, 4:30 PM)100% (Apr 3, 10:30 PM)30.01 "Hg (Apr 3, 10:30 PM)
Low70 °F (Apr 4, 4:30 AM)34% (Apr 10, 2:30 PM)29.77 "Hg (Apr 2, 4:30 PM)
Average84 °F57%29.91 "Hg
* Reported Apr 2 1:30 AM — Apr 17 1:30 AM, San Cristóbal, Weather by CustomWeather, © 2014

Note: Actual official high and low records may vary slightly from our data, if they occured in-between our weather recording intervals... More about our weather records

Advertising

Historic Weather Conditions — Data for Previous 24 hours

 ConditionsComfort  
Time TempWeatherWind HumidityBarometerVisibility
1:30 AM
Apr 17
73 °FPassing clouds.N/A89%29.89 "Hg4 mi
9:30 PM
Apr 16
81 °FDrizzle. Overcast.N/A94%29.92 "Hg4 mi
8:30 PM81 °FPassing clouds.N/A79%29.89 "HgN/A
6:30 PM84 °FPassing clouds.N/A62%29.86 "HgN/A
5:30 PM88 °FPartly sunny.N/A59%29.83 "HgN/A
4:30 PM91 °FPartly sunny.N/A46%29.83 "HgN/A
3:30 PM93 °FFog.N/A49%29.83 "Hg5 mi
2:30 PM93 °FFog.N/A53%29.86 "Hg5 mi
1:30 PM91 °FFog.N/A52%29.89 "Hg5 mi
12:30 PM91 °FFog.N/A52%29.92 "Hg5 mi
11:30 AM88 °FFog.N/A46%29.95 "Hg5 mi
10:30 AM82 °FFog.N/A66%29.98 "Hg5 mi
9:30 AM77 °FFog.N/A74%29.98 "Hg4 mi
8:30 AM79 °FFog.N/A84%30.01 "Hg4 mi
7:30 AM75 °FFog.N/A94%29.95 "Hg4 mi
6:30 AM75 °FFog.N/A94%29.95 "Hg4 mi
5:30 AM82 °FPassing clouds.N/A55%29.95 "HgN/A
Weather by CustomWeather, © 2014

See weather overview